• Processing (Info)

  • MPEC 2016-O303: 2010 TJ182

    The following Minor Planet Electronic Circular may be linked-to from your own Web pages, but must not otherwise be redistributed electronically.

    A form allowing access to any MPEC is at the bottom of this page.


    Read MPEC 2016-O302 Read MPEC 2016-O304


    M.P.E.C. 2016-O303                               Issued 2016 July 26, 14:45 UT
    
         The Minor Planet Electronic Circulars contain information on unusual
             minor planets and routine data on comets.  They are published
        on behalf of Division F of the International Astronomical Union by the
              Minor Planet Center, Smithsonian Astrophysical Observatory,
                              Cambridge, MA 02138, U.S.A.
    
                 Prepared using the Tamkin Foundation Computer Network
    
                                  MPC@CFA.HARVARD.EDU
                URL https://www.minorplanetcenter.net/    ISSN 1523-6714
    
                                      2010 TJ182
    
    Additional Observations:
         K10TI2J  C2010 10 03.51912 00 58 23.632+12 20 34.29         22.3 rLEO303F51
         K10TI2J  C2010 11 01.29878 00 55 31.045+12 00 12.86         23.2 wLEO303F51
         K10TI2J  C2010 11 01.30317 00 55 30.986+12 00 12.61         23.2 wLEO303F51
         K10TI2J  C2010 11 01.33307 00 55 30.852+12 00 11.36         23.1 wLEO303F51
         K10TI2J  C2010 11 01.33659 00 55 30.823+12 00 11.34         23.2 wLEO303F51
         K10TI2J  C2011 10 21.31072 01 07 02.561+12 48 39.21         22.6 wLEO303F51
         K10TI2J  C2011 10 21.33839 01 07 02.392+12 48 37.93         22.4 wLEO303F51
         K10TI2J  C2012 10 11.34314 01 18 35.245+13 34 07.54         22.6 wLEO303F51
         K10TI2J  C2012 10 11.35812 01 18 35.151+13 34 07.22         22.5 wLEO303F51
         K10TI2J  C2012 10 11.37313 01 18 35.052+13 34 06.70         22.8 wLEO303F51
         K10TI2J  C2012 10 11.38815 01 18 34.957+13 34 06.06         22.6 wLEO303F51
         K10TI2J  C2012 11 07.28201 01 15 51.847+13 15 16.76         22.3 wLEO303F51
         K10TI2J  C2012 11 07.29610 01 15 51.732+13 15 16.11         22.6 wLEO303F51
         K10TI2J  C2012 11 07.31021 01 15 51.635+13 15 15.66         22.0 wLEO303F51
         K10TI2J  C2013 10 05.37594 01 29 57.111+14 15 40.47         22.3 wLEO303F51
         K10TI2J  C2013 10 05.38954 01 29 57.022+14 15 39.91         22.2 wLEO303F51
         K10TI2J  C2013 10 05.41687 01 29 56.861+14 15 38.88         22.5 wLEO303F51
    
    Observer details:
    F51 Pan-STARRS 1, Haleakala.  Observers B. Gibson, T. Goggia, N. Primak,
        A. Schultz, M. Willman.  Measurers Y.-T. Chen, W. Fraser, M. Holman,
        P. Lacerda, M. Lackner, H.-W. Lin, M. Payne, P. Protopapas, K. Chambers,
        S. Chastel, L. Denneau, H. Flewelling, M. Huber, R. Jedicke, E. Lilly,
        E. Magnier, M. Micheli, P. Veres, R. Wainscoat, C. Waters, R. Weryk.
        1.8-m Ritchey-Chretien + CCD.
    
    Orbital elements:
    2010 TJ182
    Epoch 2016 July 31.0 TT = JDT 2457600.5                 MPC
    M 353.99894              (2000.0)            P               Q
    n   0.00397058     Peri.  170.89146     +0.72338787     -0.67783017
    a  39.4972166      Node   232.62984     +0.62260445     +0.72264018
    e   0.2732827      Incl.    9.51423     +0.29845215     +0.13541577
    P 248              H    7.9           G   0.15           U   2
    Residuals in seconds of arc
    101003 F51  0.1+  0.0     101101 F51  0.2+  0.0     121107 F51  0.5+  0.1-
    101006 F51  0.1-  0.5+    101101 F51  0.0   0.1+    121107 F51  0.0   0.2-
    101006 F51  0.0   0.2+    111021 F51  0.1+  0.1+    121107 F51  0.3-  0.1-
    101013 F51  0.0   0.1-    111021 F51  0.1+  0.0     131005 F51  0.0   0.1+
    101013 F51  0.1-  0.3-    121011 F51  0.1-  0.2-    131005 F51  0.1-  0.1+
    101013 F51  0.0   0.3-    121011 F51  0.0   0.1+    131005 F51  0.1+  0.0
    101101 F51  0.2+  0.0     121011 F51  0.1-  0.1+
    101101 F51  0.3-  0.0     121011 F51  0.1-  0.1+
    
    Ephemeris:
    2010 TJ182               a,e,i = 39.50, 0.27, 10                 q = 28.703
    Date    TT    R. A. (2000) Decl.     Delta      r     Elong.  Phase     V
    2016 06 26    02 03 57.2 +16 00 57  29.3107 28.8202    60.3     1.8    22.8
    ...
    2016 07 11    02 05 06.2 +16 07 33  29.0772 28.8179    74.3     1.9    22.7
    ...
    2016 07 19    02 05 31.9 +16 10 09  28.9448 28.8167    81.8     2.0    22.7
    ...
    2016 07 25    02 05 45.7 +16 11 39  28.8438 28.8158    87.4     2.0    22.7
    2016 07 26    02 05 47.5 +16 11 51  28.8269 28.8157    88.4     2.0    22.7
    2016 07 27    02 05 49.3 +16 12 03  28.8099 28.8155    89.3     2.0    22.7
    ...
    2016 08 02    02 05 56.8 +16 13 00  28.7084 28.8147    95.0     2.0    22.7
    ...
    2016 08 10    02 05 59.3 +16 13 37  28.5747 28.8135   102.6     2.0    22.7
    ...
    2016 08 25    02 05 41.6 +16 12 43  28.3367 28.8113   117.1     1.8    22.7
    
    A. U. Tomatic                (C) Copyright 2016 MPC           M.P.E.C. 2016-O303
    

    Read MPEC 2016-O302 Read MPEC 2016-O304


    MPEC number:

    Enter an MPEC number in one of the following forms:

    • 1997-B01 (the full form)
    • J97B01 (the packed version of the full form)
    • B01 (the abbreviated form)